Time,TemperatureF,DewpointF,PressureIn,WindDirection,WindDirectionDegrees,WindSpeedMPH,WindSpeedGustMPH,Humidity,HourlyPrecipIn,Conditions,Clouds,dailyrainin,SolarRadiationWatts/m^2,SoftwareType,DateUTC
2013-05-18 00:02:00,71.2,67.0,30.09,SSE,161,0.0,1.0,86,0.00,,,0.00,0,weatherlink.com 1.10,2013-05-18 04:02:00,
2013-05-18 00:17:00,70.7,67.0,30.10,SSE,161,0.0,1.0,87,0.00,,,0.00,0,weatherlink.com 1.10,2013-05-18 04:17:00,
2013-05-18 00:32:00,70.4,67.0,30.10,SSE,161,0.0,2.0,88,0.00,,,0.00,0,weatherlink.com 1.10,2013-05-18 04:32:00,
2013-05-18 00:48:00,70.3,67.0,30.10,South,174,1.0,3.0,89,0.00,,,0.00,0,weatherlink.com 1.10,2013-05-18 04:48:00,
2013-05-18 01:02:00,70.5,67.0,30.09,SE,138,1.0,5.0,88,0.00,,,0.00,0,weatherlink.com 1.10,2013-05-18 05:02:00,
2013-05-18 01:18:00,70.7,67.0,30.09,SSW,201,0.0,4.0,88,0.00,,,0.00,0,weatherlink.com 1.10,2013-05-18 05:18:00,
2013-05-18 01:34:00,70.7,67.0,30.09,SE,142,3.0,4.0,88,0.00,,,0.00,0,weatherlink.com 1.10,2013-05-18 05:34:00,
2013-05-18 01:48:00,70.5,67.0,30.08,SSE,149,0.0,4.0,88,0.00,,,0.00,0,weatherlink.com 1.10,2013-05-18 05:48:00,
2013-05-18 02:04:00,70.3,67.0,30.08,SSE,152,0.0,4.0,89,0.00,,,0.00,0,weatherlink.com 1.10,2013-05-18 06:04:00,
2013-05-18 02:18:00,70.1,67.0,30.07,SE,137,0.0,5.0,89,0.00,,,0.00,0,weatherlink.com 1.10,2013-05-18 06:18:00,
2013-05-18 02:34:00,69.9,67.0,30.08,SSE,163,0.0,4.0,90,0.00,,,0.00,0,weatherlink.com 1.10,2013-05-18 06:34:00,
2013-05-18 02:48:00,69.7,67.0,30.08,SE,140,0.0,2.0,90,0.00,,,0.00,0,weatherlink.com 1.10,2013-05-18 06:48:00,
2013-05-18 03:04:00,69.4,66.0,30.08,South,177,0.0,2.0,90,0.00,,,0.00,0,weatherlink.com 1.10,2013-05-18 07:04:00,
2013-05-18 03:18:00,69.1,66.0,30.07,South,182,0.0,1.0,91,0.00,,,0.00,0,weatherlink.com 1.10,2013-05-18 07:18:00,
2013-05-18 03:34:00,68.8,66.0,30.07,South,182,0.0,1.0,91,0.00,,,0.00,0,weatherlink.com 1.10,2013-05-18 07:34:00,
2013-05-18 03:48:00,68.4,66.0,30.07,South,182,0.0,1.0,92,0.00,,,0.00,0,weatherlink.com 1.10,2013-05-18 07:48:00,
2013-05-18 04:04:00,68.1,66.0,30.07,South,182,0.0,0.0,92,0.00,,,0.00,0,weatherlink.com 1.10,2013-05-18 08:04:00,
2013-05-18 04:19:00,67.6,66.0,30.07,South,182,0.0,0.0,93,0.00,,,0.00,0,weatherlink.com 1.10,2013-05-18 08:19:00,
2013-05-18 04:34:00,67.3,65.0,30.07,South,182,0.0,0.0,93,0.00,,,0.00,0,weatherlink.com 1.10,2013-05-18 08:34:00,
2013-05-18 04:49:00,66.9,65.0,30.07,South,182,0.0,0.0,93,0.00,,,0.00,0,weatherlink.com 1.10,2013-05-18 08:49:00,
2013-05-18 05:04:00,66.3,64.0,30.08,South,182,0.0,0.0,93,0.00,,,0.00,0,weatherlink.com 1.10,2013-05-18 09:04:00,
2013-05-18 05:19:00,66.1,64.0,30.08,South,182,0.0,0.0,94,0.00,,,0.00,0,weatherlink.com 1.10,2013-05-18 09:19:00,
2013-05-18 05:34:00,65.4,63.0,30.08,South,182,0.0,0.0,93,0.00,,,0.00,0,weatherlink.com 1.10,2013-05-18 09:34:00,
2013-05-18 05:49:00,64.9,63.0,30.08,South,182,0.0,0.0,94,0.00,,,0.00,0,weatherlink.com 1.10,2013-05-18 09:49:00,
2013-05-18 06:04:00,64.7,63.0,30.08,South,182,0.0,0.0,94,0.00,,,0.00,0,weatherlink.com 1.10,2013-05-18 10:04:00,
2013-05-18 06:19:00,64.1,62.0,30.08,South,182,0.0,0.0,94,0.00,,,0.00,0,weatherlink.com 1.10,2013-05-18 10:19:00,
2013-05-18 06:34:00,64.2,63.0,30.08,South,182,0.0,0.0,95,0.00,,,0.00,5,weatherlink.com 1.10,2013-05-18 10:34:00,
2013-05-18 06:49:00,64.6,64.0,30.09,South,182,0.0,0.0,96,0.00,,,0.00,18,weatherlink.com 1.10,2013-05-18 10:49:00,
2013-05-18 07:04:00,64.8,64.0,30.09,South,182,0.0,0.0,96,0.00,,,0.00,37,weatherlink.com 1.10,2013-05-18 11:04:00,
2013-05-18 07:19:00,65.9,65.0,30.10,South,182,0.0,0.0,96,0.00,,,0.00,69,weatherlink.com 1.10,2013-05-18 11:19:00,
2013-05-18 07:35:00,66.8,66.0,30.10,SSE,167,0.0,1.0,96,0.00,,,0.00,111,weatherlink.com 1.10,2013-05-18 11:35:00,
2013-05-18 07:50:00,67.8,66.0,30.11,SSE,167,0.0,1.0,95,0.00,,,0.00,165,weatherlink.com 1.10,2013-05-18 11:50:00,
2013-05-18 08:05:00,69.0,67.0,30.12,SSE,167,0.0,1.0,94,0.00,,,0.00,223,weatherlink.com 1.10,2013-05-18 12:05:00,
2013-05-18 08:20:00,71.3,69.0,30.12,SSE,164,0.0,1.0,91,0.00,,,0.00,278,weatherlink.com 1.10,2013-05-18 12:20:00,
2013-05-18 08:35:00,73.7,70.0,30.12,SE,146,1.0,2.0,87,0.00,,,0.00,327,weatherlink.com 1.10,2013-05-18 12:35:00,
2013-05-18 08:50:00,75.4,70.0,30.12,SSE,158,1.0,4.0,84,0.00,,,0.00,381,weatherlink.com 1.10,2013-05-18 12:50:00,
2013-05-18 09:05:00,76.5,71.0,30.13,South,175,1.0,5.0,82,0.00,,,0.00,432,weatherlink.com 1.10,2013-05-18 13:05:00,
2013-05-18 09:20:00,77.5,71.0,30.13,South,188,2.0,5.0,79,0.00,,,0.00,478,weatherlink.com 1.10,2013-05-18 13:20:00,
2013-05-18 09:35:00,78.2,70.0,30.13,South,173,2.0,5.0,76,0.00,,,0.00,531,weatherlink.com 1.10,2013-05-18 13:35:00,
2013-05-18 09:50:00,78.9,70.0,30.12,SSE,148,4.0,5.0,75,0.00,,,0.00,578,weatherlink.com 1.10,2013-05-18 13:50:00,
2013-05-18 10:06:00,79.9,70.0,30.11,SSW,208,1.0,6.0,72,0.00,,,0.00,631,weatherlink.com 1.10,2013-05-18 14:06:00,
2013-05-18 10:21:00,80.2,70.0,30.11,SSW,200,1.0,6.0,72,0.00,,,0.00,622,weatherlink.com 1.10,2013-05-18 14:21:00,
2013-05-18 10:36:00,81.0,70.0,30.11,SSW,211,2.0,6.0,69,0.00,,,0.00,715,weatherlink.com 1.10,2013-05-18 14:36:00,
2013-05-18 10:51:00,81.6,71.0,30.10,ESE,108,2.0,5.0,69,0.00,,,0.00,789,weatherlink.com 1.10,2013-05-18 14:51:00,
2013-05-18 11:06:00,82.4,70.0,30.10,ESE,108,2.0,7.0,66,0.00,,,0.00,826,weatherlink.com 1.10,2013-05-18 15:06:00,
2013-05-18 11:21:00,83.0,69.0,30.10,SSE,157,2.0,5.0,63,0.00,,,0.00,557,weatherlink.com 1.10,2013-05-18 15:21:00,
2013-05-18 11:36:00,84.2,70.0,30.09,WSW,239,4.0,5.0,63,0.00,,,0.00,907,weatherlink.com 1.10,2013-05-18 15:36:00,
2013-05-18 11:51:00,85.3,69.0,30.09,SSW,211,3.0,7.0,59,0.00,,,0.00,1018,weatherlink.com 1.10,2013-05-18 15:51:00,
2013-05-18 12:07:00,84.5,69.0,30.09,NNW,348,1.0,6.0,59,0.00,,,0.00,1004,weatherlink.com 1.10,2013-05-18 16:07:00,
2013-05-18 12:21:00,85.4,67.0,30.09,SW,223,1.0,7.0,55,0.00,,,0.00,311,weatherlink.com 1.10,2013-05-18 16:21:00,
2013-05-18 12:37:00,85.6,67.0,30.08,South,173,0.0,5.0,54,0.00,,,0.00,318,weatherlink.com 1.10,2013-05-18 16:37:00,
2013-05-18 12:52:00,86.2,66.0,30.08,ESE,103,1.0,9.0,52,0.00,,,0.00,1130,weatherlink.com 1.10,2013-05-18 16:52:00,
2013-05-18 13:07:00,85.5,67.0,30.08,South,180,0.0,7.0,54,0.00,,,0.00,250,weatherlink.com 1.10,2013-05-18 17:07:00,
2013-05-18 13:22:00,86.2,66.0,30.08,SSW,210,0.0,6.0,52,0.00,,,0.00,294,weatherlink.com 1.10,2013-05-18 17:22:00,
2013-05-18 13:37:00,86.6,65.0,30.07,WNW,282,5.0,5.0,49,0.00,,,0.00,367,weatherlink.com 1.10,2013-05-18 17:37:00,
2013-05-18 13:52:00,87.7,66.0,30.07,ENE,58,0.0,6.0,49,0.00,,,0.00,264,weatherlink.com 1.10,2013-05-18 17:52:00,
2013-05-18 14:07:00,86.7,66.0,30.06,ENE,69,1.0,5.0,50,0.00,,,0.00,334,weatherlink.com 1.10,2013-05-18 18:07:00,
2013-05-18 14:22:00,87.6,66.0,30.06,WSW,242,0.0,7.0,48,0.00,,,0.00,297,weatherlink.com 1.10,2013-05-18 18:22:00,
2013-05-18 14:37:00,88.4,66.0,30.05,SE,144,0.0,4.0,47,0.00,,,0.00,306,weatherlink.com 1.10,2013-05-18 18:37:00,
2013-05-18 14:52:00,89.3,66.0,30.05,ESE,108,3.0,4.0,46,0.00,,,0.00,1020,weatherlink.com 1.10,2013-05-18 18:52:00,
2013-05-18 15:08:00,88.8,65.0,30.04,SSW,204,0.0,4.0,46,0.00,,,0.00,251,weatherlink.com 1.10,2013-05-18 19:08:00,
2013-05-18 15:22:00,87.7,65.0,30.04,South,183,1.0,4.0,47,0.00,,,0.00,279,weatherlink.com 1.10,2013-05-18 19:22:00,
2013-05-18 15:38:00,88.6,65.0,30.03,South,182,0.0,2.0,46,0.00,,,0.00,951,weatherlink.com 1.10,2013-05-18 19:38:00,
2013-05-18 15:52:00,88.4,67.0,30.03,East,95,5.0,11.0,49,0.00,,,0.00,181,weatherlink.com 1.10,2013-05-18 19:52:00,
2013-05-18 16:08:00,87.8,66.0,30.02,ENE,58,4.0,9.0,49,0.00,,,0.00,788,weatherlink.com 1.10,2013-05-18 20:08:00,
2013-05-18 16:24:00,88.7,67.0,30.01,SE,132,2.0,10.0,48,0.00,,,0.00,281,weatherlink.com 1.10,2013-05-18 20:24:00,
2013-05-18 16:38:00,88.3,67.0,30.01,ESE,103,0.0,4.0,49,0.00,,,0.00,274,weatherlink.com 1.10,2013-05-18 20:38:00,
2013-05-18 16:54:00,89.2,66.0,30.00,East,82,5.0,9.0,47,0.00,,,0.00,195,weatherlink.com 1.10,2013-05-18 20:54:00,
2013-05-18 17:08:00,87.6,66.0,30.00,ENE,63,3.0,8.0,48,0.00,,,0.00,185,weatherlink.com 1.10,2013-05-18 21:08:00,
2013-05-18 17:24:00,88.4,66.0,30.00,ENE,71,2.0,5.0,47,0.00,,,0.00,552,weatherlink.com 1.10,2013-05-18 21:24:00,
2013-05-18 17:38:00,89.4,66.0,29.99,ESE,115,1.0,5.0,46,0.00,,,0.00,534,weatherlink.com 1.10,2013-05-18 21:38:00,
2013-05-18 17:54:00,88.1,70.0,30.00,East,94,3.0,10.0,55,0.00,,,0.00,144,weatherlink.com 1.10,2013-05-18 21:54:00,
2013-05-18 18:08:00,85.3,70.0,30.00,ENE,57,0.0,10.0,60,0.00,,,0.00,359,weatherlink.com 1.10,2013-05-18 22:08:00,
2013-05-18 18:24:00,84.4,69.0,30.00,ENE,65,1.0,13.0,60,0.00,,,0.00,288,weatherlink.com 1.10,2013-05-18 22:24:00,
2013-05-18 18:38:00,83.9,68.0,30.00,ESE,122,3.0,10.0,60,0.00,,,0.00,239,weatherlink.com 1.10,2013-05-18 22:38:00,
2013-05-18 18:54:00,83.4,68.0,30.00,SE,145,3.0,9.0,60,0.00,,,0.00,125,weatherlink.com 1.10,2013-05-18 22:54:00,
2013-05-18 19:09:00,82.8,68.0,30.00,ESE,123,3.0,10.0,61,0.00,,,0.00,162,weatherlink.com 1.10,2013-05-18 23:09:00,
2013-05-18 19:24:00,81.9,68.0,30.00,East,86,11.0,11.0,62,0.00,,,0.00,95,weatherlink.com 1.10,2013-05-18 23:24:00,
2013-05-18 19:39:00,80.9,68.0,30.01,East,99,2.0,9.0,65,0.00,,,0.00,35,weatherlink.com 1.10,2013-05-18 23:39:00,
2013-05-18 19:54:00,79.9,68.0,30.01,East,95,1.0,5.0,68,0.00,,,0.00,18,weatherlink.com 1.10,2013-05-18 23:54:00,
2013-05-18 20:09:00,79.1,69.0,30.02,ESE,112,1.0,5.0,70,0.00,,,0.00,11,weatherlink.com 1.10,2013-05-19 00:09:00,
2013-05-18 20:24:00,78.5,68.0,30.02,ESE,107,3.0,9.0,71,0.00,,,0.00,0,weatherlink.com 1.10,2013-05-19 00:24:00,
2013-05-18 20:39:00,77.9,69.0,30.02,ENE,74,2.0,5.0,74,0.00,,,0.00,0,weatherlink.com 1.10,2013-05-19 00:39:00,
2013-05-18 20:54:00,77.6,70.0,30.02,ENE,73,2.0,4.0,76,0.00,,,0.00,0,weatherlink.com 1.10,2013-05-19 00:54:00,
2013-05-18 21:09:00,77.3,70.0,30.04,East,98,1.0,5.0,77,0.00,,,0.00,0,weatherlink.com 1.10,2013-05-19 01:09:00,
2013-05-18 21:24:00,77.2,70.0,30.04,ESE,119,1.0,2.0,78,0.00,,,0.00,0,weatherlink.com 1.10,2013-05-19 01:24:00,
2013-05-18 21:39:00,77.1,70.0,30.06,NNW,339,3.0,4.0,79,0.00,,,0.00,0,weatherlink.com 1.10,2013-05-19 01:39:00,
2013-05-18 21:54:00,76.1,71.0,30.08,North,355,5.0,12.0,84,0.04,,,0.04,0,weatherlink.com 1.10,2013-05-19 01:54:00,
2013-05-18 22:09:00,73.6,70.0,30.07,ENE,72,3.0,8.0,89,0.11,,,0.11,0,weatherlink.com 1.10,2013-05-19 02:09:00,
2013-05-18 22:24:00,72.7,70.0,30.07,ESE,122,0.0,3.0,91,0.12,,,0.12,0,weatherlink.com 1.10,2013-05-19 02:24:00,
2013-05-18 22:39:00,72.4,70.0,30.08,South,173,0.0,2.0,92,0.12,,,0.12,0,weatherlink.com 1.10,2013-05-19 02:39:00,
2013-05-18 22:54:00,72.1,70.0,30.08,East,88,0.0,2.0,93,0.08,,,0.13,0,weatherlink.com 1.10,2013-05-19 02:54:00,
2013-05-18 23:09:00,71.6,70.0,30.07,ENE,74,0.0,3.0,94,0.02,,,0.13,0,weatherlink.com 1.10,2013-05-19 03:09:00,
2013-05-18 23:25:00,71.4,70.0,30.08,ENE,69,1.0,3.0,94,0.01,,,0.13,0,weatherlink.com 1.10,2013-05-19 03:25:00,
2013-05-18 23:39:00,71.1,69.0,30.07,East,79,0.0,3.0,94,0.01,,,0.13,0,weatherlink.com 1.10,2013-05-19 03:39:00,
2013-05-18 23:54:00,70.8,69.0,30.08,NNE,14,1.0,4.0,95,0.00,,,0.13,0,weatherlink.com 1.10,2013-05-19 03:54:00,